VIASAT-1 1 37843U 11059A 21062.13670378 -.00000032 00000-0 00000+0 0 9992 2 37843 0.0088 150.9868 0002545 195.3707 108.8309 1.00270427 34906 BREEZE-M R/B 1 37844U 11059B 21060.18366997 .00000082 00000-0 00000-0 0 9990 2 37844 29.9539 171.0691 6682820 281.5119 10.7381 2.27326869 77716 BREEZE-M DEB [TANK] 1 37845U 11059C 21061.33647777 .00000742 00000-0 15427-3 0 9992 2 37845 49.6795 132.1802 4581696 359.2218 0.3159 6.29674367212907